This is the latest recevied weather packets stored in our database for station/object OH6HPS. If no packets are shown the sender has not sent any weather packets the latest 10 day(s).
| Time | Temp. | Humidity | Pressure | Rain* | Wind** | Luminosity | Snow |
|---|---|---|---|---|---|---|---|
| 1777473302 | 11.11° C | 32% | 1023.6 hPa | 0 mm | - | 357 W/m² | - |
| 1777472701 | 11.11° C | 33% | 1023.8 hPa | 0 mm | - | 278 W/m² | - |
| 1777472103 | 11.11° C | 33% | 1023.9 hPa | 0 mm | - | 255 W/m² | - |
| 1777471502 | 11.67° C | 32% | 1024 hPa | 0 mm | - | 285 W/m² | - |
| 1777470900 | 11.67° C | 32% | 1023.8 hPa | 0 mm | - | 318 W/m² | - |
| 1777470301 | 11.67° C | 32% | 1023.8 hPa | 0 mm | - | 612 W/m² | - |
| 1777469701 | 11.67° C | 33% | 1023.9 hPa | 0 mm | - | 570 W/m² | - |
| 1777469101 | 11.11° C | 34% | 1024 hPa | 0 mm | - | 480 W/m² | - |
| 1777468502 | 11.67° C | 31% | 1024 hPa | 0 mm | - | 383 W/m² | - |
| 1777467900 | 11.67° C | 31% | 1024.2 hPa | 0 mm | - | 536 W/m² | - |
| 1777467300 | 11.67° C | 32% | 1024.3 hPa | 0 mm | - | 598 W/m² | - |
| 1777466700 | 11.67° C | 32% | 1024.2 hPa | 0 mm | - | 619 W/m² | - |
| 1777466099 | 11.11° C | 31% | 1024.2 hPa | 0 mm | - | 489 W/m² | - |
| 1777465499 | 11.11° C | 32% | 1024.3 hPa | 0 mm | - | 612 W/m² | - |
| 1777464899 | 11.11° C | 29% | 1024.4 hPa | 0 mm | - | 630 W/m² | - |
| 1777464299 | 11.11° C | 32% | 1024.5 hPa | 0 mm | - | 645 W/m² | - |
| 1777463698 | 11.11° C | 32% | 1024.7 hPa | 0 mm | - | 600 W/m² | - |
| 1777463098 | 11.11° C | 32% | 1024.6 hPa | 0 mm | - | 658 W/m² | - |
| 1777462498 | 11.11° C | 33% | 1024.8 hPa | 0 mm | - | 677 W/m² | - |
| 1777461898 | 10.56° C | 33% | 1024.8 hPa | 0 mm | - | 670 W/m² | - |
| 1777461297 | 10.56° C | 33% | 1024.9 hPa | 0 mm | - | 675 W/m² | - |
| 1777460698 | 10° C | 33% | 1024.8 hPa | 0 mm | - | 677 W/m² | - |
| 1777460097 | 10.56° C | 33% | 1025.1 hPa | 0 mm | - | 684 W/m² | - |
| 1777459496 | 10° C | 34% | 1025.1 hPa | 0 mm | - | 688 W/m² | - |
| 1777458896 | 10° C | 34% | 1025.2 hPa | 0 mm | - | 682 W/m² | - |
* Rain latest hour (hover to see other rain measurements)
** Current wind speed in m/s (hover to see current wind gust speed)